CAPE
157 124 145 25 0 0 0 0 0 0 0 0 0 4 33 294 224 29 778 1049 1150 1003 1129 1034 963 684 494 336 106 20 1 68 1 1 4 2 2 5 9 50 10 6 5 1 0 0 0 0 0
82 181 169 15 0 0 0 0 0 0 0 0 0 156 9 50 201 796 1092 1155 910 1010 1076 1103 955 782 578 370 147 76 13 246 33 0 1 2 4 1 3 5 3 7 1 0 0 0 0 0 0
369 539 12 3 0 0 0 0 0 0 0 0 0 92 433 230 459 704 945 978 864 866 1152 1022 998 838 668 413 206 131 85 297 145 7 0 0 0 4 6 5 6 4 2 2 2 1 0 0 0
206 378 83 0 0 0 0 0 0 0 0 0 61 282 759 698 629 1184 906 986 670 883 1129 1042 1120 966 669 354 247 120 118 243 410 52 0 0 0 1 2 3 4 1 1 3 6 0 0 0 0
172 78 3 0 0 0 0 0 0 0 0 0 0 97 573 905 673 1045 918 834 737 943 1044 1241 1160 999 666 462 260 64 6 105 437 126 27 0 0 0 0 1 1 0 3 3 4 0 0 0 0
147 80 0 0 0 0 0 0 0 0 0 9 479 417 564 1050 636 822 959 738 918 944 1082 1289 1075 903 649 468 132 0 0 7 250 502 116 2 0 0 0 0 0 1 2 1 1 13 0 0 0
89 7 0 0 0 0 7 0 0 0 0 29 237 508 738 1099 915 828 1069 1045 1168 1095 1097 1125 1017 807 548 540 169 5 0 0 177 666 127 13 0 0 0 0 0 1 0 0 0 0 0 0 0
116 50 0 0 0 23 0 0 0 0 3 21 295 552 492 1088 1218 1105 1612 1409 1332 1070 966 996 1011 662 612 510 143 11 0 1 236 588 171 14 0 0 0 0 0 0 0 0 0 0 0 0 0
110 55 6 0 6 0 0 0 0 0 13 107 167 611 934 1277 1213 1232 1271 1418 1281 1116 966 1031 821 491 520 218 24 0 22 6 112 347 100 10 0 0 0 0 0 0 0 0 0 0 0 0 0
52 41 32 6 43 1 0 0 0 0 7 209 418 709 1116 1138 1212 1241 1247 1237 1185 1139 1069 918 731 475 352 145 0 0 8 34 24 98 94 35 5 0 15 0 0 0 0 0 0 0 0 0 0
27 3 45 64 120 42 0 0 1 0 0 27 263 679 1082 1220 1181 1060 1144 1202 1093 1249 1279 983 794 664 371 167 15 0 0 1 58 26 99 97 39 6 9 0 0 0 0 0 0 0 0 0 0
26 4 19 16 43 36 24 1 0 0 0 16 431 985 1238 1355 1116 920 946 1220 1092 1267 1379 1156 838 661 470 238 129 32 1 66 63 17 19 100 37 26 17 0 0 0 0 0 0 0 0 0 0
0 0 14 2 17 39 61 23 1 0 0 13 480 1015 1281 1244 1101 856 828 927 998 1055 1116 1186 933 643 499 366 252 165 86 114 141 117 19 23 19 0 0 0 0 0 0 0 0 0 0 0 0
0 0 0 0 3 25 41 37 1 0 0 0 312 595 1130 1228 1144 1034 883 812 672 1118 1177 1194 1060 859 666 395 272 347 136 68 109 82 18 0 0 0 0 0 0 0 0 0 0 0 0 0 0
3 6 0 0 0 4 6 2 0 0 0 0 0 158 590 1013 1069 1161 1149 947 759 740 1086 1307 1201 1071 852 532 369 439 226 109 80 68 24 11 29 26 10 0 0 0 0 0 0 0 0 0 0
6 0 0 0 0 0 1 0 4 0 0 0 0 0 0 271 846 997 1153 1063 898 1100 975 1026 1154 1080 1127 847 679 467 456 306 284 146 120 52 43 50 31 13 13 0 0 0 0 0 0 0 0
0 0 0 0 0 3 6 4 0 7 21 3 0 0 0 0 16 395 719 939 1205 1159 1047 851 856 967 875 949 999 775 613 455 333 307 210 177 121 98 69 43 41 32 6 0 0 0 0 0 0
0 0 0 0 0 1 0 0 7 0 1 0 0 0 0 0 0 0 407 729 1075 1095 931 809 763 681 787 823 851 898 625 539 306 359 302 255 206 164 188 202 178 126 51 19 0 0 0 0 0
8 11 9 17 0 0 0 1 2 0 0 0 0 0 0 0 0 0 0 418 595 972 1047 1083 974 849 736 685 699 832 704 671 579 499 386 307 250 230 292 303 299 275 249 212 142 117 92 69 31
0 0 1 42 98 24 2 0 0 0 0 0 0 0 0 0 0 0 0 0 345 764 1067 1216 1180 1100 1031 871 769 777 735 642 511 421 385 409 409 415 433 403 412 376 433 395 374 282 191 99 63
0 0 0 0 22 5 0 0 0 0 0 0 0 0 0 0 0 0 0 0 60 682 1028 1161 1085 1131 1079 1072 837 708 517 510 359 310 244 224 255 241 280 319 388 395 348 343 279 251 192 81 30
14 37 20 4 1 0 0 0 0 0 0 0 0 0 0 0 0 0 0 0 0 304 773 1110 1141 1111 1035 953 870 662 440 392 358 300 248 161 181 16 4 13 41 134 237 202 164 131 97 30 6
5 2 16 12 0 0 0 0 0 0 0 0 0 0 0 0 0 0 0 0 0 0 198 676 881 1069 958 937 961 600 466 349 233 265 199 41 0 0 0 0 0 1 6 0 0 0 1 5 4
12 14 5 0 0 0 0 0 0 0 0 0 0 0 0 0 0 0 0 0 0 0 0 75 187 437 582 557 668 600 446 229 165 84 34 1 0 0 0 0 0 0 0 0 0 0 0 0 0
13 32 5 0 0 0 0 0 0 0 0 0 0 0 0 0 0 0 0 0 0 0 0 0 0 16 18 29 105 192 228 56 49 0 0 0 0 0 0 0 0 0 0 0 0 0 0 0 0
3 16 0 0 0 0 0 0 0 0 0 0 0 0 0 0 0 0 0 0 0 0 0 0 0 0 0 0 0 0 0 0 0 0 0 0 0 0 0 0 0 0 0 0 0 0 0 0 0
0 5 3 0 0 0 0 0 0 0 0 0 0 0 0 0 0 0 0 0 0 0 0 0 0 0 0 0 0 0 0 0 0 0 0 0 0 0 0 0 0 0 0 0 0 0 0 0 0
0 0 9 1 0 0 0 0 0 0 0 0 0 0 0 0 0 0 0 0 0 0 0 0 0 0 0 0 0 0 0 0 0 0 0 0 0 0 0 0 0 0 0 0 0 0 0 0 0
0 1 6 0 0 0 0 0 0 0 0 0 0 0 0 0 0 0 0 0 0 0 0 0 0 0 0 0 0 0 0 0 0 0 0 0 0 0 0 0 0 0 0 0 0 0 0 0 0
2 0 0 0 0 0 0 0 0 0 0 0 0 0 0 0 0 0 0 0 0 0 0 0 0 0 0 0 0 0 0 0 0 0 0 0 0 0 0 0 0 0 0 0 0 0 0 0 0
CIN
-89 -106 -116 -180 -0 -0 -0 -0 -0 -0 -0 -0 -0 -46 -140 -101 -81 -47 -205 -160 -118 -91 -23 -5 -3 -5 -15 -52 -181 -309 -9 -176 -0 -0 -0 -0 -276 -239 -195 -110 -78 -0 -0 -0 -0 -0 -0 -0 -0
-95 -76 -82 -100 -0 -0 -0 -0 -0 -0 -0 -0 -0 -128 -20 -94 -124 -187 -123 -111 -144 -88 -35 -6 -4 -4 -11 -37 -135 -182 -291 -49 -207 -0 -0 -0 -0 -0 -0 -0 -0 -0 -0 -0 -0 -0 -0 -0 -0
-69 -46 -79 -34 -0 -0 -0 -0 -0 -0 -0 -0 -0 -57 -50 -42 -131 -152 -151 -103 -128 -101 -27 -14 -4 -8 -15 -38 -83 -117 -141 -26 -86 -216 -0 -0 -0 -0 -0 -1 -0 -0 -0 -0 -0 -0 -0 -0 -0
-64 -23 -40 -0 -0 -0 -0 -0 -0 -0 -0 -0 -57 -44 -87 -113 -116 -131 -130 -109 -145 -92 -30 -19 -7 -7 -22 -52 -60 -125 -112 -33 -28 -166 -0 -0 -0 -0 -0 -0 -0 -0 -0 -0 -0 -0 -0 -0 -0
-73 -40 -38 -0 -0 -0 -0 -92 -0 -0 -0 -0 -13 -11 -29 -62 -68 -136 -99 -111 -136 -85 -43 -9 -7 -11 -27 -40 -73 -169 -226 -102 -30 -106 -218 -0 -0 -0 -0 -0 -0 -0 -0 -0 -0 -0 -0 -0 -0
-6 -19 -0 -0 -0 -0 -0 -0 -0 -0 -0 -37 -32 -27 -29 -38 -45 -72 -46 -127 -101 -88 -43 -8 -16 -20 -33 -48 -114 -0 -0 -125 -63 -41 -115 -262 -0 -0 -0 -0 -0 -0 -0 -0 -0 -162 -0 -0 -0
-14 -4 -0 -0 -0 -0 -8 -0 -0 -0 -0 -90 -105 -36 -39 -17 -38 -49 -63 -95 -71 -72 -50 -26 -29 -33 -46 -48 -108 -83 -0 -0 -90 -40 -125 -196 -0 -0 -0 -0 -0 -0 -0 -0 -0 -0 -0 -0 -0
-18 -10 -0 -0 -0 -25 -0 -0 -0 -0 -85 -195 -103 -64 -58 -57 -58 -58 -59 -63 -56 -74 -72 -43 -37 -57 -49 -63 -127 -240 -0 -26 -85 -47 -111 -201 -0 -0 -0 -0 -0 -0 -0 -0 -0 -0 -0 -0 -0
-37 -5 -26 -0 -65 -0 -0 -0 -0 -0 -114 -227 -197 -150 -98 -75 -52 -42 -49 -40 -53 -52 -76 -47 -61 -100 -82 -134 -208 -0 -191 -91 -120 -70 -146 -193 -0 -0 -0 -0 -0 -0 -0 -0 -0 -0 -0 -0 -0
-38 -20 -57 -57 -76 -35 -0 -0 -0 -0 -126 -158 -125 -120 -99 -95 -38 -18 -25 -46 -45 -43 -51 -72 -81 -126 -138 -177 -0 -0 -73 -210 -226 -148 -149 -244 -225 -0 -228 -0 -0 -0 -0 -0 -0 -0 -0 -0 -0
-53 -31 -86 -87 -73 -34 -0 -0 -96 -10 -0 -176 -155 -133 -99 -63 -75 -23 -30 -39 -67 -42 -28 -61 -81 -101 -145 -187 -147 -0 -0 -25 -205 -232 -162 -163 -204 -214 -240 -0 -0 -0 -0 -0 -0 -0 -0 -0 -0
-16 -18 -61 -68 -50 -41 -36 -41 -0 -0 -0 -200 -138 -82 -81 -48 -56 -85 -40 -30 -51 -47 -38 -36 -71 -93 -116 -161 -197 -233 -31 -210 -203 -228 -236 -182 -241 -245 -245 -0 -0 -0 -0 -0 -0 -0 -0 -0 -0
-0 -3 -32 -39 -56 -56 -53 -49 -30 -0 -0 -124 -90 -32 -34 -46 -46 -46 -39 -30 -36 -34 -52 -44 -73 -86 -99 -115 -142 -163 -196 -191 -173 -156 -222 -248 -258 -0 -0 -0 -0 -0 -0 -0 -0 -0 -0 -0 -0
-0 -0 -0 -5 -62 -81 -29 -21 -43 -0 -0 -0 -73 -49 -14 -33 -42 -48 -41 -50 -76 -14 -21 -39 -56 -61 -76 -106 -127 -102 -158 -200 -182 -184 -193 -0 -0 -0 -0 -0 -0 -0 -0 -0 -0 -0 -0 -0 -0
-9 -1 -0 -0 -0 -27 -86 -57 -0 -0 -0 -0 -1 -113 -61 -28 -32 -25 -29 -40 -58 -59 -22 -16 -28 -30 -51 -84 -97 -70 -119 -136 -161 -166 -180 -195 -185 -208 -235 -0 -0 -0 -0 -0 -0 -0 -0 -0 -0
-46 -0 -0 -0 -0 -2 -46 -0 -15 -1 -0 -0 -0 -0 -0 -101 -34 -25 -30 -19 -33 -26 -33 -36 -29 -27 -21 -47 -49 -59 -63 -74 -82 -126 -130 -152 -152 -160 -185 -197 -182 -0 -0 -0 -0 -0 -0 -0 -0
-0 -0 -0 -0 -0 -3 -2 -0 -0 -3 -29 -34 -0 -0 -0 -0 -115 -106 -40 -37 -19 -23 -28 -29 -53 -49 -45 -49 -34 -29 -30 -50 -55 -73 -90 -109 -115 -120 -123 -145 -135 -133 -66 -0 -0 -0 -0 -0 -0
-0 -0 -0 -0 -0 -3 -0 -0 -18 -5 -8 -0 -0 -0 -0 -0 -0 -0 -91 -43 -24 -25 -39 -52 -64 -62 -55 -39 -32 -30 -33 -40 -38 -27 -48 -69 -77 -83 -66 -56 -54 -55 -76 -78 -0 -0 -0 -0 -0
-26 -25 -0 -14 -0 -0 -0 -3 -49 -0 -0 -0 -0 -0 -0 -0 -0 -0 -0 -87 -75 -25 -27 -43 -72 -88 -62 -68 -44 -28 -43 -24 -17 -16 -12 -26 -32 -34 -24 -21 -12 -9 -10 -11 -21 -15 -13 -28 -33
-0 -0 -11 -27 -28 -14 -15 -0 -0 -0 -0 -0 -0 -0 -0 -0 -0 -0 -0 -0 -84 -44 -26 -31 -39 -45 -53 -67 -58 -21 -23 -24 -41 -34 -26 -26 -33 -29 -15 -12 -11 -12 -9 -11 -11 -10 -9 -16 -20
-0 -0 -0 -7 -41 -13 -0 -0 -0 -0 -0 -0 -0 -0 -0 -0 -0 -0 -0 -0 -211 -77 -50 -40 -50 -53 -51 -43 -41 -30 -38 -30 -23 -22 -33 -46 -41 -53 -46 -35 -27 -24 -28 -18 -23 -13 -11 -10 -15
-9 -16 -9 -13 -6 -3 -9 -0 -0 -0 -0 -0 -0 -0 -0 -0 -0 -0 -0 -0 -0 -122 -102 -66 -56 -68 -58 -53 -45 -36 -39 -40 -45 -33 -42 -64 -73 -195 -156 -100 -57 -56 -60 -41 -36 -25 -16 -16 -8
-13 -30 -18 -17 -21 -0 -0 -0 -0 -0 -0 -0 -0 -0 -0 -0 -0 -0 -0 -0 -0 -0 -199 -114 -84 -62 -78 -74 -59 -55 -42 -57 -65 -64 -74 -149 -0 -0 -208 -0 -0 -120 -136 -0 -0 -6 -1 -7 -6
-20 -6 -14 -0 -0 -0 -0 -0 -0 -0 -0 -0 -0 -0 -0 -0 -0 -0 -0 -0 -0 -0 -0 -291 -195 -132 -118 -122 -89 -72 -67 -80 -121 -134 -142 -127 -0 -0 -0 -0 -0 -0 -0 -0 -0 -0 -0 -0 -0
-8 -4 -7 -0 -1 -0 -0 -0 -0 -0 -0 -0 -0 -0 -0 -0 -0 -0 -0 -0 -0 -0 -0 -0 -0 -366 -379 -116 -213 -191 -163 -216 -166 -26 -0 -0 -0 -0 -0 -0 -0 -0 -0 -0 -0 -0 -0 -0 -0
-24 -16 -0 -0 -0 -0 -0 -0 -0 -0 -0 -0 -0 -0 -0 -0 -0 -0 -0 -0 -0 -0 -0 -0 -0 -0 -0 -0 -0 -0 -0 -0 -0 -0 -0 -0 -0 -0 -0 -0 -0 -0 -0 -0 -0 -0 -0 -0 -0
-0 -7 -30 -0 -0 -0 -0 -0 -0 -0 -0 -0 -0 -0 -0 -0 -0 -0 -0 -0 -0 -0 -0 -0 -0 -0 -0 -0 -0 -0 -0 -0 -0 -0 -0 -0 -0 -0 -0 -0 -0 -0 -0 -0 -0 -0 -0 -0 -0
-1 -0 -5 -19 -0 -0 -0 -0 -0 -0 -0 -0 -0 -0 -0 -0 -0 -0 -0 -0 -0 -0 -0 -0 -0 -0 -0 -0 -0 -0 -0 -0 -0 -0 -0 -0 -0 -0 -0 -0 -0 -0 -0 -0 -0 -0 -0 -0 -0
-3 -2 -12 -0 -0 -0 -0 -0 -0 -0 -0 -0 -0 -0 -0 -0 -0 -0 -0 -0 -0 -0 -0 -0 -0 -0 -0 -0 -0 -0 -0 -0 -0 -0 -0 -0 -0 -0 -0 -0 -0 -0 -0 -0 -0 -0 -0 -0 -0
-7 -15 -0 -0 -0 -0 -0 -0 -0 -0 -0 -0 -0 -0 -0 -0 -0 -0 -0 -0 -0 -0 -0 -0 -0 -0 -0 -0 -0 -0 -0 -0 -0 -0 -0 -0 -0 -0 -0 -0 -0 -0 -0 -0 -0 -0 -0 -0 -0
Wind_Speed
27 25 21 21 30 30 36 32 25 29 19 12 9 13 14 11 15 13 5 8 13 12 13 13 14 14 14 14 15 15 17 17 18 18 16 16 16 17 18 19 19 21 21 22 23 24 25 25 26
25 24 24 25 35 40 39 35 26 26 17 9 5 6 12 16 13 4 4 9 12 12 12 12 14 13 13 13 14 15 16 17 19 19 18 17 17 18 18 19 20 21 21 22 23 24 24 25 26
27 24 26 32 37 44 40 35 27 22 17 19 16 9 10 10 3 6 7 8 10 11 10 13 13 14 14 14 13 14 14 15 18 19 19 18 19 19 20 21 21 22 22 22 23 23 24 25 26
27 26 27 36 48 40 31 31 25 23 19 16 12 13 11 13 10 3 11 10 11 9 11 13 13 13 13 14 14 15 15 15 17 18 19 18 19 20 21 22 22 22 22 22 23 24 24 24 25
28 28 35 40 44 39 28 22 22 26 22 18 20 20 12 12 9 10 11 10 12 11 11 11 13 13 13 14 14 14 15 15 15 18 18 19 19 20 21 21 22 21 21 22 23 23 24 24 24
34 30 38 45 43 34 29 26 20 21 22 17 19 21 18 14 8 7 11 9 10 11 10 10 12 13 13 14 13 13 13 14 14 17 17 18 19 20 20 21 21 21 21 20 21 22 22 22 22
37 34 40 38 38 29 26 31 24 19 20 21 19 22 20 12 10 4 9 10 11 9 8 8 9 11 12 14 12 12 11 11 13 16 17 18 19 19 19 19 20 19 19 19 19 20 20 21 21
34 31 38 36 36 24 22 22 23 20 21 18 18 23 20 14 12 5 8 9 9 8 7 7 7 8 9 10 11 11 10 9 8 10 13 15 16 17 17 18 17 17 17 17 17 18 19 19 19
30 33 40 36 31 29 23 21 18 17 18 18 20 18 12 8 7 4 7 7 7 6 7 7 7 7 8 8 9 9 8 8 7 9 11 12 12 14 15 15 16 15 15 15 15 16 16 16 16
32 37 35 30 25 28 22 22 20 21 20 19 16 15 14 13 10 8 10 9 8 6 7 8 7 7 7 6 7 8 8 6 6 7 9 8 10 12 12 13 13 13 13 14 14 14 14 14 14
32 35 31 24 22 24 22 22 20 20 25 22 22 17 18 15 15 14 10 10 8 7 7 7 7 6 6 4 4 6 7 5 5 6 6 6 8 9 10 11 11 12 12 12 13 13 12 13 13
35 31 25 23 20 24 23 22 21 23 21 16 14 15 16 18 20 17 16 11 11 10 7 7 6 5 3 3 2 3 5 4 4 4 4 5 6 7 8 9 10 10 11 11 11 11 12 12 12
33 31 22 21 20 20 20 20 22 19 16 13 12 14 15 17 18 22 17 13 12 11 10 8 6 5 3 2 1 1 1 2 2 2 5 5 4 7 7 8 9 9 10 9 9 10 11 10 11
37 31 28 21 21 23 24 24 18 20 16 15 13 13 14 14 19 19 22 19 16 14 12 10 9 7 6 5 4 4 3 0 1 1 7 5 8 8 10 8 8 9 10 10 11 11 12 12 12
23 34 31 28 20 27 19 28 29 22 17 18 17 15 14 15 16 16 18 20 19 19 16 12 10 9 10 7 7 9 7 6 6 7 9 11 11 11 10 11 12 11 11 12 12 13 13 14 15
32 29 31 32 32 20 25 30 25 21 20 21 20 18 15 15 16 18 18 17 17 17 15 14 14 11 10 12 11 12 11 11 8 8 8 11 14 14 13 13 13 11 11 11 13 14 15 16 16
32 33 34 32 33 33 32 26 37 26 22 24 26 24 21 18 17 17 18 21 18 16 13 16 16 19 16 14 15 14 13 12 14 12 12 10 13 14 14 14 13 13 12 12 14 15 16 17 17
35 27 30 33 30 34 39 41 35 26 26 24 28 28 28 23 21 17 16 18 17 15 14 12 13 16 16 17 15 16 14 15 15 15 15 11 12 12 12 13 14 14 13 13 15 16 17 18 18
28 29 31 29 27 30 36 38 40 31 29 30 31 31 30 28 26 21 17 15 18 19 15 13 12 12 11 14 17 17 15 16 17 16 15 12 13 11 11 12 15 16 17 16 16 19 20 18 18
31 31 35 24 21 26 27 32 39 38 33 29 29 30 34 35 29 27 22 19 19 19 17 16 15 15 15 14 15 16 16 16 17 16 14 14 13 14 13 14 17 20 21 20 21 21 23 23 20
28 34 33 30 24 23 21 29 32 39 40 35 35 33 34 35 33 30 27 24 21 19 18 16 16 16 18 17 15 17 19 20 19 17 16 15 14 17 18 18 20 23 24 24 24 24 24 28 23
27 23 26 25 25 31 25 30 29 36 36 37 34 35 31 29 30 29 30 28 28 22 18 18 16 15 16 16 18 18 18 18 18 17 14 12 13 13 14 16 20 24 26 28 27 26 25 26 29
23 21 23 27 30 29 29 31 30 26 32 41 37 32 31 29 32 28 29 31 30 28 23 21 20 19 18 17 18 19 19 18 16 16 14 13 12 13 14 16 20 25 20 27 29 28 27 26 27
16 17 16 21 28 36 35 33 34 32 29 30 33 37 31 25 28 31 30 29 29 26 24 21 21 21 20 19 20 21 21 21 19 17 16 15 16 16 18 19 19 19 22 22 24 26 26 26 26
18 21 28 34 36 40 28 32 38 25 27 30 30 29 29 26 22 24 28 27 26 24 23 21 19 20 21 22 22 21 21 20 21 19 18 18 18 20 19 18 18 18 20 22 24 25 25 25 25
21 21 26 33 36 35 30 34 30 23 23 19 17 14 16 17 24 24 21 20 23 24 24 23 21 20 18 19 20 21 18 18 20 21 15 18 18 20 19 18 19 21 22 24 24 25 24 25 27
22 27 22 26 27 29 29 30 30 28 18 17 19 21 19 18 19 21 21 19 20 21 22 21 20 19 18 16 16 18 19 18 20 16 16 17 16 16 20 21 23 23 24 24 25 26 26 24 25
22 22 25 24 31 34 29 28 27 20 19 17 16 20 19 18 17 17 17 20 20 19 18 19 18 17 15 13 15 16 17 18 16 15 16 16 17 20 23 26 25 26 24 25 26 26 25 25 26
23 25 25 22 23 26 26 25 23 24 13 10 13 15 16 17 17 18 18 19 19 19 17 16 15 14 14 13 14 17 17 17 17 18 18 20 22 25 24 23 25 26 27 26 28 28 27 26 25
27 28 25 29 29 29 26 27 17 10 10 10 11 11 12 13 15 15 17 18 19 17 16 15 13 14 15 15 18 19 24 17 16 17 21 21 23 22 22 24 25 26 26 27 27 27 27 26 25
Wind_Direction
240 239 242 238 231 238 233 234 238 238 244 254 260 248 232 277 252 258 131 113 117 117 110 101 94 85 77 68 62 57 62 60 55 54 58 55 54 54 54 54 52 52 53 52 52 53 56 59 62
235 238 237 234 230 228 230 230 233 232 242 236 278 224 242 262 251 199 178 118 118 116 108 100 95 85 77 67 64 62 64 64 62 59 59 56 55 55 54 55 59 56 55 54 55 56 56 62 62
233 235 228 229 229 226 228 229 234 238 241 237 246 258 244 236 249 238 127 127 122 116 106 100 92 89 82 73 65 64 65 65 68 63 60 58 58 60 62 61 61 61 57 56 57 57 59 62 64
228 228 235 230 225 227 232 238 238 235 239 240 238 246 262 267 262 114 128 122 128 115 105 100 92 89 80 73 70 71 74 69 69 68 63 59 60 63 65 66 65 61 58 57 60 60 62 63 63
225 227 226 228 227 228 234 240 235 233 236 240 236 237 245 253 243 133 127 123 125 114 108 99 93 88 79 76 74 72 75 76 69 74 65 62 62 64 66 67 65 62 59 57 60 61 63 62 57
217 225 223 223 225 231 235 233 236 238 234 239 234 226 242 243 220 151 137 124 126 117 111 101 94 87 81 80 72 68 74 77 71 76 69 66 64 64 65 67 66 64 59 56 55 57 58 55 55
217 220 221 224 223 233 230 228 238 239 230 237 241 232 235 231 238 207 140 126 125 120 115 104 93 87 81 83 72 66 70 74 71 79 74 70 67 64 63 65 65 63 59 55 53 52 56 57 56
219 224 223 225 220 229 225 230 233 239 236 243 245 237 234 230 234 220 150 136 133 128 122 113 98 85 78 79 69 65 67 67 63 60 70 69 66 63 61 61 61 60 55 51 51 52 55 57 60
222 222 221 223 224 226 231 230 242 248 236 244 246 242 236 221 227 201 186 173 159 147 135 124 111 94 84 78 63 60 64 66 59 59 68 63 54 58 59 57 58 56 54 53 51 52 57 60 64
220 220 221 229 236 226 229 230 235 241 237 238 239 238 237 233 216 214 214 201 192 177 154 141 128 111 99 82 66 60 72 62 45 57 68 42 49 52 44 48 47 47 50 52 49 52 61 64 57
220 216 225 231 241 227 229 234 242 236 240 243 236 234 233 236 226 227 224 230 195 181 172 161 147 130 112 98 72 57 78 58 38 66 61 29 27 36 39 35 34 38 43 39 43 51 60 56 49
217 223 227 240 240 229 233 244 240 243 244 243 241 237 235 234 234 226 229 229 223 227 187 183 172 150 144 112 100 69 73 72 51 58 59 13 24 37 26 29 37 40 43 44 46 43 41 45 46
220 226 231 246 241 239 232 238 249 240 237 242 242 241 233 233 236 236 235 233 235 236 231 205 202 221 218 210 199 213 63 76 86 3 339 341 30 358 9 12 22 26 27 38 46 41 35 48 40
226 226 233 243 242 245 232 236 254 241 236 240 240 241 239 232 236 238 239 237 238 241 238 227 227 240 239 247 251 271 272 65 138 313 316 324 325 332 337 356 8 6 10 13 13 16 14 18 18
226 227 234 236 244 247 239 238 248 241 239 240 243 246 247 243 239 237 240 242 245 245 245 240 235 240 251 250 264 278 276 283 291 295 301 305 312 315 323 327 332 341 350 352 353 357 4 0 360
221 230 229 234 237 246 235 237 240 252 242 241 244 247 249 250 245 244 243 246 248 248 247 247 250 242 245 260 262 273 284 281 285 287 293 298 296 304 310 314 318 331 341 346 345 345 343 345 348
222 227 235 238 244 244 236 239 234 251 245 246 246 248 250 252 254 253 247 247 247 246 241 253 255 260 260 266 268 269 274 276 285 286 286 291 296 294 299 303 309 320 329 334 337 334 336 337 339
222 230 228 237 246 246 249 249 242 252 257 251 252 250 251 250 251 253 252 246 245 246 246 247 250 255 261 264 270 274 270 277 281 281 285 280 291 289 294 299 304 312 320 326 330 328 329 331 334
233 235 233 242 245 242 248 249 250 253 265 253 252 252 254 254 254 252 253 247 251 250 248 244 246 244 250 262 261 267 265 276 278 288 282 277 286 281 284 295 301 307 312 318 322 322 324 328 333
237 234 236 248 245 246 256 256 247 250 258 258 253 254 255 257 256 250 250 251 249 252 251 248 250 253 256 264 269 269 271 274 277 276 282 290 290 292 290 293 299 303 307 313 315 318 319 322 328
243 236 237 243 248 256 265 256 250 248 252 256 254 257 258 256 257 249 249 250 251 252 254 250 251 254 259 264 268 276 280 278 278 278 280 289 294 297 296 299 301 300 303 307 312 314 315 312 320
244 248 242 240 244 247 253 258 259 253 255 255 256 256 259 258 256 253 250 253 254 253 256 259 255 251 254 258 262 268 272 272 273 274 275 280 292 299 305 316 309 303 299 300 307 311 313 314 311
253 254 250 242 245 251 252 258 262 260 262 252 255 258 257 257 256 254 253 256 256 259 259 262 265 265 262 256 259 263 268 272 274 275 269 279 293 298 302 311 309 306 314 303 304 309 311 313 312
258 257 257 256 253 252 253 258 261 262 265 264 257 254 258 260 259 257 257 259 257 259 260 263 267 269 271 270 265 261 261 266 268 273 274 279 291 298 304 310 306 311 312 316 315 313 313 313 312
259 251 251 249 250 252 262 258 257 278 271 283 268 266 264 264 261 260 258 259 251 255 259 264 268 271 273 274 272 267 264 262 265 267 273 279 290 297 304 308 310 315 317 318 317 314 314 315 314
257 254 255 251 252 257 259 261 266 280 281 283 281 272 279 277 265 260 257 253 253 256 261 265 268 270 273 274 275 273 265 263 277 268 276 282 288 293 301 307 311 314 316 318 317 314 313 313 312
262 256 269 264 265 263 262 266 272 277 283 284 276 270 277 281 280 263 257 255 258 259 263 266 270 273 273 271 273 276 272 268 265 275 284 289 296 295 301 305 308 312 313 314 314 311 311 311 313
267 263 258 262 257 257 265 265 266 285 277 279 281 275 283 281 283 278 267 264 264 269 267 268 270 272 273 274 275 277 272 270 271 279 283 287 293 298 299 303 307 308 313 313 312 310 309 309 311
260 261 259 263 264 260 263 268 280 278 280 286 286 290 290 286 283 280 280 279 275 272 271 272 271 267 266 273 280 281 272 271 278 280 287 292 294 295 303 304 305 308 310 312 310 309 308 307 309
259 256 256 256 259 262 271 270 284 299 292 295 301 312 305 299 291 290 289 288 284 276 273 271 268 267 271 270 281 273 272 275 275 287 291 300 300 301 302 303 307 308 311 312 310 308 308 308 308